WA7ABU-29 Weather Reports


Display with metric or nautical units.
time (UTC)temp
F
wind
direction
speed
MPH
gust
MPH
rain 1hr
in
rain 24hr
in
rain mn
in
humidity
%
barometer
mb
20260505223517 59 334 3.0 4.0 0.00 0.00 0.00 80 997.3
20260505223455 59 337 2.0 2.0 0.00 0.00 0.00 79 997.3
20260505223036 59 338 2.0 3.0 0.00 0.00 0.00 80 997.6
20260505222833 59 344 10.0 11.0 0.00 0.00 0.00 78 997.6
20260505222629 59 338 3.0 5.0 0.00 0.00 0.00 80 997.6
20260505222425 59 302 3.0 4.0 0.00 0.00 0.00 80 997.6
20260505222221 59 344 4.0 4.0 0.00 0.00 0.00 79 997.6
20260505222159 59 357 4.0 5.0 0.00 0.00 0.00 81 997.6
20260505221740 59 352 5.0 7.0 0.00 0.00 0.00 79 997.6
20260505221536 59 339 3.0 3.0 0.00 0.00 0.00 79 997.6
20260505221332 59 326 1.0 2.0 0.00 0.00 0.00 78 997.6
20260505221128 59 337 2.0 3.0 0.00 0.00 0.00 81 997.6
20260505221106 59 341 8.0 11.0 0.00 0.00 0.00 79 997.6
20260505220647 59 348 5.0 7.0 0.00 0.00 0.00 82 997.6
20260505220624 59 331 2.0 3.0 0.00 0.00 0.00 78 997.6
20260505220206 59 337 0.0 1.0 0.00 0.00 0.00 78 998.0
20260505220002 59 339 3.0 6.0 0.00 0.00 0.00 79 997.6
20260505215758 59 342 8.0 10.0 0.00 0.00 0.00 78 997.6
20260505215555 60 340 0.0 2.0 0.00 0.00 0.00 77 997.6
20260505215351 59 7 4.0 6.0 0.00 0.00 0.00 80 997.6
20260505215329 59 0 3.0 5.0 0.00 0.00 0.00 80 997.6
20260505215053 59 338 5.0 7.0 0.00 0.00 0.00 78 997.6
20260505214635 59 351 6.0 7.0 0.00 0.00 0.00 81 997.6
20260505214431 59 319 1.0 2.0 0.00 0.00 0.00 79 997.6
20260505214225 59 330 7.0 9.0 0.00 0.00 0.00 79 997.6
20260505214021 59 330 2.0 3.0 0.00 0.00 0.00 78 997.6
20260505213817 59 323 0.0 1.0 0.00 0.00 0.00 78 997.6
20260505213614 59 321 1.0 2.0 0.00 0.00 0.00 76 997.6
20260505213410 59 317 2.0 4.0 0.00 0.00 0.00 80 998.0
20260505213207 59 275 3.0 4.0 0.00 0.00 0.00 78 997.6
20260505212959 59 335 1.0 1.0 0.00 0.00 0.00 79 997.6
20260505212755 59 339 6.0 7.0 0.00 0.00 0.00 79 997.6
20260505212551 59 328 4.0 6.0 0.00 0.00 0.00 80 997.6
20260505212347 59 264 5.0 7.0 0.00 0.00 0.00 82 997.6
20260505212143 59 188 2.0 2.0 0.00 0.00 0.00 79 997.6
20260505212121 59 258 1.0 5.0 0.00 0.00 0.00 80 997.6
20260505211703 59 346 6.0 9.0 0.00 0.00 0.00 80 997.6
20260505211459 59 336 6.0 7.0 0.00 0.00 0.00 80 998.0
20260505211255 59 334 4.0 5.0 0.00 0.00 0.00 81 997.6
20260505211051 59 344 7.0 8.0 0.00 0.00 0.00 81 998.0
20260505210848 59 319 3.0 4.0 0.00 0.00 0.00 80 997.6
20260505210643 59 350 4.0 5.0 0.00 0.00 0.00 81 997.6
20260505210440 59 346 2.0 6.0 0.00 0.00 0.00 79 998.0
20260505210236 59 260 5.0 7.0 0.00 0.00 0.00 79 998.0
20260505210032 59 4 0.0 1.0 0.00 0.00 0.00 77 997.6
20260505205828 59 290 1.0 2.0 0.00 0.00 0.00 79 997.6
20260505205624 59 282 3.0 4.0 0.00 0.00 0.00 79 998.0
20260505205420 59 265 3.0 7.0 0.00 0.00 0.00 81 998.0
20260505205216 59 286 2.0 3.0 0.00 0.00 0.00 79 998.0
20260505205013 58 246 5.0 6.0 0.00 0.00 0.00 80 998.0
20260505204951 59 300 1.0 2.0 0.00 0.00 0.00 79 998.0
20260505204533 59 340 1.0 3.0 0.00 0.00 0.00 80 997.6
20260505204329 59 269 1.0 4.0 0.00 0.00 0.00 80 997.6
20260505204126 59 331 2.0 4.0 0.00 0.00 0.00 79 998.0
20260505203922 59 265 3.0 5.0 0.00 0.00 0.00 81 998.0
20260505203719 59 82 3.0 7.0 0.00 0.00 0.00 80 998.0
20260505203515 59 314 1.0 2.0 0.00 0.00 0.00 80 998.0
20260505203311 59 279 9.0 12.0 0.00 0.00 0.00 79 998.0
20260505203107 59 321 3.0 5.0 0.00 0.00 0.00 78 998.0
20260505202903 59 270 3.0 6.0 0.00 0.00 0.00 81 998.0
20260505202842 59 335 7.0 9.0 0.00 0.00 0.00 80 998.0
20260505202422 59 271 8.0 9.0 0.00 0.00 0.00 78 998.0
20260505202219 59 319 5.0 6.0 0.00 0.00 0.00 82 998.0
20260505202015 59 311 5.0 9.0 0.00 0.00 0.00 78 998.0
20260505201953 59 313 3.0 9.0 0.00 0.00 0.00 78 998.0
20260505201534 59 287 1.0 2.0 0.00 0.00 0.00 79 998.0
20260505201331 59 318 0.0 1.0 0.00 0.00 0.00 77 998.0
20260505201127 59 288 6.0 7.0 0.00 0.00 0.00 78 998.0
20260505200923 59 238 7.0 9.0 0.00 0.00 0.00 78 998.0
20260505200720 59 269 2.0 6.0 0.00 0.00 0.00 78 998.0
20260505200515 59 301 0.0 2.0 0.00 0.00 0.00 76 998.0
20260505200454 59 276 6.0 7.0 0.00 0.00 0.00 78 998.0
20260505200037 59 336 1.0 2.0 0.00 0.00 0.00 78 998.0
20260505195833 59 291 2.0 4.0 0.00 0.00 0.00 81 997.6
20260505195629 59 336 0.0 2.0 0.00 0.00 0.00 80 998.0
20260505195426 59 338 2.0 4.0 0.00 0.00 0.00 79 998.0
20260505195222 59 332 1.0 2.0 0.00 0.00 0.00 79 998.0
20260505195200 58 294 1.0 2.0 0.00 0.00 0.00 80 998.0
20260505194742 58 244 5.0 6.0 0.00 0.00 0.00 78 998.0
20260505194538 58 292 3.0 5.0 0.00 0.00 0.00 80 998.0
20260505194334 58 267 3.0 5.0 0.00 0.00 0.00 82 998.0
20260505194130 58 347 7.0 8.0 0.00 0.00 0.00 79 998.0
20260505193926 58 336 1.0 2.0 0.00 0.00 0.00 80 998.0
20260505193722 59 326 3.0 5.0 0.00 0.00 0.00 78 997.6
20260505193519 59 200 2.0 2.0 0.00 0.00 0.00 82 998.0
20260505193315 59 298 3.0 5.0 0.00 0.00 0.00 80 998.0
20260505193112 58 291 2.0 3.0 0.00 0.00 0.00 78 998.0
20260505192907 58 306 0.0 2.0 0.00 0.00 0.00 79 998.3
20260505192704 58 297 1.0 3.0 0.00 0.00 0.00 80 998.0
20260505192500 58 292 3.0 4.0 0.00 0.00 0.00 80 998.0
20260505192256 58 341 5.0 7.0 0.00 0.00 0.00 79 998.0
20260505192052 58 330 3.0 5.0 0.00 0.00 0.00 81 998.0
20260505191848 58 341 1.0 2.0 0.00 0.00 0.00 77 998.0
20260505191645 58 310 1.0 2.0 0.00 0.00 0.00 81 998.0
20260505191441 57 138 1.0 2.0 0.00 0.00 0.00 80 998.0
20260505191236 58 255 5.0 6.0 0.00 0.00 0.00 79 998.0
20260505191033 58 200 2.0 2.0 0.00 0.00 0.00 83 998.0
20260505190829 57 303 1.0 2.0 0.00 0.00 0.00 80 998.0
20260505190625 58 195 4.0 5.0 0.00 0.00 0.00 81 998.0
20260505190603 57 261 4.0 5.0 0.00 0.00 0.00 82 998.0
20260505190146 57 269 3.0 3.0 0.00 0.00 0.00 83 998.0
20260505185941 58 177 3.0 3.0 0.00 0.00 0.00 81 998.0
20260505185737 58 166 2.0 3.0 0.00 0.00 0.00 81 998.0
20260505185534 57 328 0.0 1.0 0.00 0.00 0.00 84 998.0
20260505185330 56 323 1.0 2.0 0.00 0.00 0.00 86 998.0
20260505185126 56 307 2.0 2.0 0.00 0.00 0.00 87 998.0
20260505184922 56 182 3.0 5.0 0.00 0.00 0.00 85 998.3
20260505184719 56 215 3.0 5.0 0.00 0.00 0.00 85 998.3
20260505184515 55 285 1.0 2.0 0.00 0.00 0.00 84 998.0
20260505184310 55 188 3.0 3.0 0.00 0.00 0.00 86 998.0
20260505184107 55 180 1.0 2.0 0.00 0.00 0.00 84 998.0
20260505183903 55 172 1.0 2.0 0.00 0.00 0.00 85 998.3
20260505183659 55 190 4.0 5.0 0.00 0.00 0.00 88 998.0
20260505183456 55 201 4.0 6.0 0.00 0.00 0.00 86 998.3
20260505183252 55 204 5.0 5.0 0.00 0.00 0.00 84 998.0
20260505183230 56 283 3.0 4.0 0.00 0.00 0.00 86 998.0
20260505182813 55 261 4.0 5.0 0.00 0.00 0.00 88 998.0
20260505182609 55 293 5.0 6.0 0.00 0.00 0.00 86 998.0
20260505182406 55 288 2.0 3.0 0.00 0.00 0.00 86 998.0
20260505182202 55 208 4.0 5.0 0.00 0.00 0.00 86 998.0
20260505182139 55 239 3.0 4.0 0.00 0.00 0.00 85 998.0
20260505181903 55 199 3.0 4.0 0.00 0.00 0.00 87 998.0
20260505181628 55 263 4.0 5.0 0.00 0.00 0.00 88 998.0
20260505181209 55 301 1.0 2.0 0.00 0.00 0.00 86 998.3
20260505181006 55 312 1.0 2.0 0.00 0.00 0.00 88 998.3
20260505180944 55 242 3.0 5.0 0.00 0.00 0.00 89 998.3
20260505180527 54 189 3.0 4.0 0.00 0.00 0.00 88 998.0
20260505180323 54 194 3.0 4.0 0.00 0.00 0.00 88 998.0
20260505180119 55 205 3.0 4.0 0.00 0.00 0.00 87 998.0
20260505180057 55 188 4.0 5.0 0.00 0.00 0.00 87 998.0
20260505175639 55 169 2.0 3.0 0.00 0.00 0.00 87 998.0
20260505175435 55 355 0.0 1.0 0.00 0.00 0.00 84 998.0
20260505175231 55 157 0.0 1.0 0.00 0.00 0.00 87 998.0
20260505175027 55 156 0.0 1.0 0.00 0.00 0.00 88 998.0
20260505174824 54 164 0.0 0.0 0.00 0.00 0.00 88 998.0
20260505174801 54 164 1.0 2.0 0.00 0.00 0.00 91 998.0
20260505174526 54 148 0.0 2.0 0.00 0.00 0.00 88 998.0
20260505174107 54 193 2.0 2.0 0.00 0.00 0.00 88 998.0
20260505174045 54 168 1.0 2.0 0.00 0.00 0.00 88 998.0
20260505173809 54 179 4.0 5.0 0.00 0.00 0.00 89 997.6
20260505173351 54 171 3.0 4.0 0.00 0.00 0.00 90 998.0
20260505173329 54 157 4.0 5.0 0.00 0.00 0.00 90 997.6
20260505172911 53 157 3.0 4.0 0.00 0.00 0.00 90 998.0
20260505172707 53 169 3.0 4.0 0.00 0.00 0.00 90 998.0
20260505172503 53 136 3.0 4.0 0.00 0.00 0.00 90 998.0
20260505172259 53 173 4.0 5.0 0.00 0.00 0.00 90 998.0
20260505172056 53 137 2.0 2.0 0.00 0.00 0.00 90 998.0
20260505171852 53 179 5.0 5.0 0.00 0.00 0.00 92 997.6
20260505171649 53 155 3.0 4.0 0.00 0.00 0.00 90 998.0
20260505171445 53 184 4.0 5.0 0.00 0.00 0.00 91 998.0
20260505171240 53 164 3.0 5.0 0.00 0.00 0.00 92 998.0
20260505171037 53 190 4.0 5.0 0.00 0.00 0.00 92 998.0
20260505170833 52 189 3.0 4.0 0.00 0.00 0.00 91 998.0
20260505170629 52 177 4.0 5.0 0.00 0.00 0.00 92 998.0
20260505170425 52 189 1.0 2.0 0.00 0.00 0.00 91 998.0
20260505170221 53 170 5.0 5.0 0.00 0.00 0.00 92 998.0
20260505170017 52 170 3.0 4.0 0.00 0.00 0.00 93 998.0
20260505165814 52 159 4.0 5.0 0.00 0.00 0.00 92 997.6
20260505165610 52 213 5.0 5.0 0.00 0.00 0.00 93 997.6
20260505165406 52 178 4.0 5.0 0.00 0.00 0.00 92 997.6
20260505165202 52 189 5.0 6.0 0.00 0.00 0.00 93 998.0
20260505164958 52 171 3.0 3.0 0.00 0.00 0.00 92 997.6
20260505164754 52 207 4.0 5.0 0.00 0.00 0.00 92 997.6
20260505164551 52 180 4.0 5.0 0.00 0.00 0.00 93 998.0
20260505164348 52 179 3.0 3.0 0.00 0.00 0.00 93 997.6
20260505164143 52 210 5.0 6.0 0.00 0.00 0.00 93 998.0
20260505163940 52 183 3.0 3.0 0.00 0.00 0.00 93 997.6
20260505163736 52 209 3.0 4.0 0.00 0.00 0.00 93 997.6
20260505163532 52 171 3.0 3.0 0.00 0.00 0.00 93 997.6
20260505163328 52 191 5.0 5.0 0.00 0.00 0.00 93 998.0
20260505163123 52 183 3.0 5.0 0.00 0.00 0.00 93 997.6
20260505162919 52 165 4.0 4.0 0.00 0.00 0.00 93 997.6
20260505162715 51 159 4.0 5.0 0.00 0.00 0.00 93 997.6
20260505162511 51 180 4.0 5.0 0.00 0.00 0.00 93 997.6
20260505162307 51 187 3.0 3.0 0.00 0.00 0.00 93 997.6
20260505162103 52 197 5.0 6.0 0.00 0.00 0.00 94 997.6
20260505161859 52 161 4.0 5.0 0.00 0.00 0.00 94 997.6
20260505161655 51 183 3.0 3.0 0.00 0.00 0.00 93 997.6
20260505161452 52 165 5.0 5.0 0.00 0.00 0.00 94 997.6
20260505161430 51 166 5.0 5.0 0.00 0.00 0.00 94 997.6
20260505161011 51 165 3.0 3.0 0.00 0.00 0.00 94 997.6
20260505160807 51 195 4.0 5.0 0.00 0.00 0.00 94 997.6
20260505160603 51 195 3.0 4.0 0.00 0.00 0.00 95 997.6
20260505160359 51 201 2.0 2.0 0.00 0.00 0.00 94 997.6
20260505160155 51 162 2.0 3.0 0.00 0.00 0.00 95 997.6
20260505153121 50 195 4.0 5.0 0.00 0.00 0.00 95 997.6
20260505153059 50 204 3.0 4.0 0.00 0.00 0.00 95 997.6
20260505152823 50 180 3.0 4.0 0.00 0.00 0.00 95 997.6
20260505152405 50 206 3.0 4.0 0.00 0.00 0.00 95 997.3
20260505152202 50 171 4.0 5.0 0.00 0.00 0.00 95 997.6
20260505151958 50 177 3.0 4.0 0.00 0.00 0.00 95 997.6
20260505151754 50 200 5.0 5.0 0.00 0.00 0.00 95 997.6
20260505151550 50 232 5.0 6.0 0.00 0.00 0.00 95 997.6
20260505151346 50 198 7.0 7.0 0.00 0.00 0.00 95 997.6
20260505151142 50 178 6.0 6.0 0.00 0.00 0.00 95 997.6
20260505150938 50 196 5.0 6.0 0.00 0.00 0.00 95 997.6
20260505150734 50 229 6.0 7.0 0.00 0.00 0.00 95 997.3
20260505150531 50 211 5.0 5.0 0.00 0.00 0.00 95 997.6
20260505150508 50 234 7.0 7.0 0.00 0.00 0.00 95 997.3
20260505140635 51 183 5.0 6.0 0.00 0.00 0.00 95 997.0
20260505140431 50 187 4.0 5.0 0.00 0.00 0.00 95 997.0
20260505140227 50 170 5.0 7.0 0.00 0.00 0.00 95 997.0
20260505130210 50 161 4.0 5.0 0.00 0.00 0.00 94 996.6
20260505124831 50 157 4.0 5.0 0.00 0.00 0.00 93 996.6
20260505124627 50 139 6.0 6.0 0.00 0.00 0.00 93 996.3
20260505124424 50 160 5.0 5.0 0.00 0.00 0.00 93 996.3
20260505124402 50 141 4.0 5.0 0.00 0.00 0.00 93 996.6
20260505124126 51 143 4.0 5.0 0.00 0.00 0.00 93 996.6
20260505123709 50 156 7.0 7.0 0.00 0.00 0.00 93 996.6
20260505123505 51 160 6.0 7.0 0.00 0.00 0.00 93 996.6
20260505123302 50 160 6.0 7.0 0.00 0.00 0.00 93 996.6
20260505123058 50 133 6.0 7.0 0.00 0.00 0.00 93 996.6
20260505122854 50 135 5.0 6.0 0.00 0.00 0.00 93 996.6
20260505122650 50 143 7.0 8.0 0.00 0.00 0.00 93 996.6
20260505122447 50 150 7.0 7.0 0.00 0.00 0.00 93 996.6
20260505122243 50 163 6.0 7.0 0.00 0.00 0.00 93 996.3
20260505122039 51 155 6.0 7.0 0.00 0.00 0.00 93 996.6
20260505121835 50 152 6.0 7.0 0.00 0.00 0.00 93 996.3
20260505121813 50 146 6.0 7.0 0.00 0.00 0.00 93 996.3
20260505121356 50 153 6.0 6.0 0.00 0.00 0.00 93 996.6
20260505121152 50 164 5.0 6.0 0.00 0.00 0.00 93 996.6
20260505121130 50 157 5.0 5.0 0.00 0.00 0.00 93 996.6
20260505120712 50 186 4.0 5.0 0.00 0.00 0.00 93 996.3
20260505120649 51 191 5.0 7.0 0.00 0.00 0.00 93 996.6
20260505120414 51 180 4.0 5.0 0.00 0.00 0.00 93 996.6
20260505115955 51 164 5.0 6.0 0.00 0.00 0.00 93 996.3
20260505115751 50 153 5.0 6.0 0.00 0.00 0.00 93 996.3
20260505115547 51 157 6.0 7.0 0.00 0.00 0.00 93 996.3
20260505115343 51 181 6.0 7.0 0.00 0.00 0.00 93 996.3
20260505115140 51 157 6.0 7.0 0.00 0.00 0.00 93 996.6
20260505114936 51 166 4.0 5.0 0.00 0.00 0.00 93 996.6
20260505114732 51 152 5.0 5.0 0.00 0.00 0.00 92 996.3
20260505114529 51 166 4.0 5.0 0.00 0.00 0.00 92 996.3
20260505114325 51 156 5.0 5.0 0.00 0.00 0.00 92 996.3
20260505114121 51 174 6.0 7.0 0.00 0.00 0.00 92 996.3
20260505113917 51 126 5.0 7.0 0.00 0.00 0.00 92 995.9
20260505113713 51 153 5.0 5.0 0.00 0.00 0.00 92 996.3
20260505113510 51 160 5.0 5.0 0.00 0.00 0.00 92 996.3
20260505113306 51 175 6.0 7.0 0.00 0.00 0.00 92 996.3
20260505113102 51 190 7.0 7.0 0.00 0.00 0.00 92 996.3
20260505112859 51 155 5.0 6.0 0.00 0.00 0.00 92 996.3
20260505112655 51 175 7.0 8.0 0.00 0.00 0.00 92 996.3
20260505112633 51 191 7.0 8.0 0.00 0.00 0.00 92 996.3
20260505112214 51 175 7.0 8.0 0.00 0.00 0.00 92 996.3
20260505112152 51 171 7.0 8.0 0.00 0.00 0.00 91 996.3
20260505111734 51 153 8.0 10.0 0.00 0.00 0.00 92 996.3
20260505111530 51 172 8.0 8.0 0.00 0.00 0.00 91 996.3
20260505111326 51 158 7.0 7.0 0.00 0.00 0.00 91 996.3
20260505111122 51 183 8.0 10.0 0.00 0.00 0.00 91 996.3
20260505110918 51 151 8.0 10.0 0.00 0.00 0.00 91 996.3
20260505110710 51 152 8.0 9.0 0.00 0.00 0.00 91 996.3
20260505110507 51 155 9.0 10.0 0.00 0.00 0.00 91 996.3
20260505110445 51 148 7.0 7.0 0.00 0.00 0.00 91 996.3
20260505102034 51 153 10.0 12.0 0.00 0.00 0.00 90 996.3
20260505101831 51 154 7.0 8.0 0.00 0.00 0.00 90 995.9
20260505101627 51 160 9.0 10.0 0.00 0.00 0.00 90 995.9
20260505101423 51 155 10.0 11.0 0.00 0.00 0.00 90 995.9
20260505101220 51 161 9.0 10.0 0.00 0.00 0.00 90 995.9
20260505101016 51 144 6.0 7.0 0.00 0.00 0.00 90 996.3
20260505100812 51 159 9.0 10.0 0.00 0.00 0.00 90 995.9
20260505100750 51 149 10.0 11.0 0.00 0.00 0.00 90 995.9
20260505100332 51 168 9.0 11.0 0.00 0.00 0.00 90 995.9
20260505100128 51 153 9.0 10.0 0.00 0.00 0.00 90 995.9
20260505095924 51 167 11.0 14.0 0.00 0.00 0.00 90 995.9
20260505095902 51 172 9.0 10.0 0.00 0.00 0.00 90 995.9
20260505095626 51 147 11.0 13.0 0.00 0.00 0.00 90 995.9
20260505095351 51 170 8.0 9.0 0.00 0.00 0.00 90 995.9
20260505095115 51 162 9.0 10.0 0.00 0.00 0.00 90 995.9
20260505094840 51 166 8.0 9.0 0.00 0.00 0.00 90 995.9
20260505094422 51 157 9.0 10.0 0.00 0.00 0.00 90 995.9
20260505094218 51 167 9.0 10.0 0.00 0.00 0.00 90 995.9
20260505094014 51 165 7.0 8.0 0.00 0.00 0.00 90 995.9
20260505093810 51 156 9.0 10.0 0.00 0.00 0.00 89 995.9
20260505093607 51 171 9.0 10.0 0.00 0.00 0.00 90 995.9
20260505093545 51 167 10.0 12.0 0.00 0.00 0.00 90 995.9
20260505093310 51 159 6.0 7.0 0.00 0.00 0.00 90 995.9
20260505092851 51 174 10.0 11.0 0.00 0.00 0.00 90 995.9
20260505092647 51 164 8.0 9.0 0.00 0.00 0.00 90 995.6
20260505092443 51 161 10.0 10.0 0.00 0.00 0.00 90 995.9
20260505092239 51 163 8.0 10.0 0.00 0.00 0.00 90 995.9
20260505092036 51 149 10.0 12.0 0.00 0.00 0.00 90 995.6
20260505091832 51 161 8.0 9.0 0.00 0.00 0.00 90 995.6
20260505091628 51 175 10.0 11.0 0.00 0.00 0.00 90 995.6
20260505091605 51 161 9.0 10.0 0.00 0.00 0.00 90 995.6
20260505091147 51 162 11.0 12.0 0.00 0.00 0.00 90 995.6
20260505090944 51 148 9.0 11.0 0.00 0.00 0.00 90 995.9
20260505090922 51 155 7.0 7.0 0.00 0.00 0.00 90 995.6
20260505090505 51 154 8.0 9.0 0.00 0.00 0.00 90 995.6
20260505090259 51 162 7.0 7.0 0.00 0.00 0.00 90 995.6
20260505090237 51 148 8.0 10.0 0.00 0.00 0.00 90 995.6
20260505085817 51 158 11.0 12.0 0.00 0.00 0.00 90 995.9
20260505085614 51 150 11.0 12.0 0.00 0.00 0.00 90 995.9
20260505085410 52 180 7.0 8.0 0.00 0.00 0.00 90 995.6
20260505085348 52 160 12.0 13.0 0.00 0.00 0.00 89 995.9
20260505084930 52 166 9.0 11.0 0.00 0.00 0.00 89 995.6
20260505084727 52 165 12.0 14.0 0.00 0.00 0.00 90 995.9
20260505084523 52 199 10.0 11.0 0.00 0.00 0.00 90 995.6
20260505084319 52 156 12.0 13.0 0.00 0.00 0.00 89 995.6
20260505084115 52 174 11.0 13.0 0.00 0.00 0.00 89 995.6
20260505083911 52 156 9.0 10.0 0.00 0.00 0.00 90 995.9
20260505083708 52 158 9.0 10.0 0.00 0.00 0.00 89 995.6
20260505083504 52 153 11.0 13.0 0.00 0.00 0.00 89 995.6
20260505083300 52 163 13.0 15.0 0.00 0.00 0.00 89 995.6
20260505083238 52 138 13.0 14.0 0.00 0.00 0.00 89 995.6
20260505082820 52 155 10.0 12.0 0.00 0.00 0.00 89 995.6
20260505082758 52 130 11.0 12.0 0.00 0.00 0.00 89 995.6
20260505082339 52 151 11.0 12.0 0.00 0.00 0.00 89 995.6
20260505082135 52 156 13.0 14.0 0.00 0.00 0.00 89 995.6
20260505081931 52 165 11.0 11.0 0.00 0.00 0.00 89 995.6
20260505081727 52 155 13.0 13.0 0.00 0.00 0.00 89 995.6
20260505081523 52 155 14.0 15.0 0.00 0.00 0.00 89 995.6
20260505081319 52 164 13.0 14.0 0.00 0.00 0.00 89 995.3
20260505081115 52 149 14.0 18.0 0.00 0.00 0.00 89 995.3
20260505080911 52 146 12.0 15.0 0.00 0.00 0.00 89 995.6
20260505080707 52 150 10.0 12.0 0.00 0.00 0.00 89 995.6
20260505080504 52 174 11.0 11.0 0.00 0.00 0.00 89 995.6
20260505080300 52 165 12.0 14.0 0.00 0.00 0.00 89 995.6
20260505080056 52 167 11.0 12.0 0.00 0.00 0.00 89 995.6
20260505075852 52 166 12.0 14.0 0.00 0.00 0.00 89 995.3
20260505075830 52 149 11.0 13.0 0.00 0.00 0.00 89 995.3
20260505075413 52 159 11.0 12.0 0.00 0.00 0.00 89 995.3
20260505075209 52 152 11.0 13.0 0.00 0.00 0.00 89 995.3
20260505075006 52 144 11.0 13.0 0.00 0.00 0.00 89 995.3
20260505074944 52 154 9.0 10.0 0.00 0.00 0.00 89 995.3
20260505074527 52 135 9.0 11.0 0.00 0.00 0.00 89 995.3
20260505074323 52 172 11.0 13.0 0.00 0.00 0.00 89 995.6
20260505074119 52 153 13.0 14.0 0.00 0.00 0.00 89 995.3
20260505073915 52 161 9.0 11.0 0.00 0.00 0.00 89 995.6
20260505073711 52 161 11.0 13.0 0.00 0.00 0.00 89 995.3
20260505073507 52 173 10.0 10.0 0.00 0.00 0.00 89 995.6
20260505073304 52 173 13.0 16.0 0.00 0.00 0.00 89 995.3
20260505073242 52 161 13.0 14.0 0.00 0.00 0.00 89 995.3
20260505072825 52 142 12.0 14.0 0.00 0.00 0.00 90 995.3
20260505072621 52 155 13.0 14.0 0.00 0.00 0.00 90 995.3
20260505072417 52 169 12.0 15.0 0.00 0.00 0.00 90 995.3
20260505072213 52 156 13.0 13.0 0.00 0.00 0.00 89 995.3
20260505072010 52 174 12.0 13.0 0.00 0.00 0.00 89 995.3
20260505071806 52 159 14.0 15.0 0.00 0.00 0.00 89 995.3
20260505071743 52 165 12.0 14.0 0.00 0.00 0.00 89 995.3
20260505071326 52 153 12.0 13.0 0.00 0.00 0.00 89 995.3
20260505071122 52 167 11.0 13.0 0.00 0.00 0.00 90 995.3
20260505070919 52 126 12.0 14.0 0.00 0.00 0.00 90 995.3
20260505070857 52 152 13.0 14.0 0.00 0.00 0.00 91 994.9
20260505070440 52 164 11.0 12.0 0.00 0.00 0.00 91 995.3
20260505070418 51 156 9.0 11.0 0.00 0.00 0.00 92 995.3
20260505070000 51 146 11.0 11.0 0.00 0.00 0.00 92 995.3
20260505065757 51 166 11.0 13.0 0.00 0.00 0.00 91 994.9
20260505065553 51 150 9.0 10.0 0.00 0.00 0.00 91 995.3
20260505065349 51 166 11.0 12.0 0.00 0.00 0.00 91 995.3
20260505065145 51 168 11.0 11.0 0.00 0.00 0.00 91 995.3
20260505064941 51 155 9.0 10.0 0.00 0.00 0.00 91 995.3
20260505064919 51 159 9.0 10.0 0.00 0.00 0.00 91 995.3
20260505064502 51 186 9.0 10.0 0.00 0.00 0.00 91 994.9
20260505064258 51 163 8.0 9.0 0.00 0.00 0.00 91 995.3
20260505064236 51 161 9.0 10.0 0.00 0.00 0.00 91 994.9
20260505063818 51 162 11.0 12.0 0.00 0.00 0.00 91 994.9
20260505063614 51 165 9.0 10.0 0.00 0.00 0.00 91 994.9
20260505063410 51 155 7.0 8.0 0.00 0.00 0.00 91 994.9
20260505063207 51 162 7.0 9.0 0.00 0.00 0.00 90 994.9
20260505063003 52 174 8.0 8.0 0.00 0.00 0.00 90 995.3
20260505062759 52 162 7.0 8.0 0.00 0.00 0.00 90 994.9
20260505062555 52 183 9.0 11.0 0.00 0.00 0.00 89 995.3
20260505062351 52 164 9.0 11.0 0.00 0.00 0.00 90 994.9
20260505062147 52 163 8.0 9.0 0.00 0.00 0.00 89 994.9
20260505062126 52 155 9.0 11.0 0.00 0.00 0.00 89 995.3
20260505061707 52 132 10.0 11.0 0.00 0.00 0.00 89 995.3
20260505061503 52 126 9.0 12.0 0.00 0.00 0.00 89 994.9
20260505061300 53 159 9.0 12.0 0.00 0.00 0.00 89 994.9
20260505061056 53 143 13.0 14.0 0.00 0.00 0.00 89 994.9
20260505060852 53 164 12.0 13.0 0.00 0.00 0.00 89 994.9
20260505060649 53 134 10.0 11.0 0.00 0.00 0.00 89 994.9
20260505060627 53 144 12.0 13.0 0.00 0.00 0.00 89 994.9
20260505060208 53 168 12.0 14.0 0.00 0.00 0.00 89 994.9
20260505060004 53 149 9.0 10.0 0.00 0.00 0.00 89 994.9
20260505055800 53 143 12.0 14.0 0.00 0.00 0.00 90 994.6
20260505055556 53 145 8.0 10.0 0.00 0.00 0.00 90 994.9
20260505055353 53 131 9.0 10.0 0.00 0.00 0.00 90 994.9
20260505055148 53 174 11.0 13.0 0.00 0.00 0.00 91 994.9
20260505054944 52 155 9.0 10.0 0.00 0.00 0.00 91 994.9
20260505054741 52 145 7.0 8.0 0.00 0.00 0.00 91 994.9
20260505054537 52 176 8.0 9.0 0.00 0.00 0.00 90 994.9
20260505054333 52 164 7.0 7.0 0.00 0.00 0.00 90 994.9
20260505054129 52 143 7.0 7.0 0.00 0.00 0.00 89 994.9
20260505053926 53 164 7.0 7.0 0.00 0.00 0.00 89 995.3
20260505053722 53 183 6.0 7.0 0.00 0.00 0.00 89 994.9
20260505053518 53 161 7.0 9.0 0.00 0.00 0.00 89 994.9
20260505053314 53 173 7.0 7.0 0.00 0.00 0.00 88 995.3
20260505053110 53 177 9.0 9.0 0.00 0.00 0.00 88 994.6
20260505052907 53 173 9.0 9.0 0.00 0.00 0.00 88 994.9
20260505052703 53 167 9.0 10.0 0.00 0.00 0.00 88 994.9
20260505052459 53 179 8.0 8.0 0.00 0.00 0.00 88 994.6
20260505052256 53 184 6.0 7.0 0.00 0.00 0.00 88 994.9
20260505052052 54 180 8.0 10.0 0.00 0.00 0.00 88 994.6
20260505052030 54 184 9.0 11.0 0.00 0.00 0.00 88 994.9
20260505051754 54 164 11.0 12.0 0.00 0.00 0.00 88 994.6
20260505051519 54 172 9.0 10.0 0.00 0.00 0.00 89 994.6
20260505051244 54 156 9.0 10.0 0.00 0.00 0.00 89 994.9
20260505050825 54 176 8.0 9.0 0.00 0.00 0.00 89 994.9
20260505050622 54 169 8.0 9.0 0.00 0.00 0.00 88 994.9
20260505050418 54 163 6.0 7.0 0.00 0.00 0.00 88 994.9
20260505050214 54 176 7.0 8.0 0.00 0.00 0.00 88 994.9
20260505041614 57 180 8.0 8.0 0.00 0.00 0.00 84 994.2
20260505041411 57 158 8.0 9.0 0.00 0.00 0.00 85 994.6
20260505041207 57 166 7.0 7.0 0.00 0.00 0.00 85 994.2
20260505041003 57 157 6.0 7.0 0.00 0.00 0.00 85 994.2
20260505040759 57 190 5.0 6.0 0.00 0.00 0.00 84 994.2
20260505040556 57 184 5.0 6.0 0.00 0.00 0.00 84 993.9
20260505040352 58 164 5.0 7.0 0.00 0.00 0.00 84 994.2
20260505040148 58 170 4.0 4.0 0.00 0.00 0.00 84 993.9
20260505035944 58 181 3.0 4.0 0.00 0.00 0.00 83 993.9
20260505035741 58 179 3.0 3.0 0.00 0.00 0.00 83 993.9
20260505035719 58 190 4.0 5.0 0.00 0.00 0.00 82 993.9
20260505035300 59 195 3.0 4.0 0.00 0.00 0.00 81 993.9
20260505035239 59 191 2.0 3.0 0.00 0.00 0.00 81 993.9
20260505034821 59 180 3.0 4.0 0.00 0.00 0.00 81 993.9
20260505034617 59 210 3.0 4.0 0.00 0.00 0.00 80 993.6
20260505034413 59 208 3.0 4.0 0.00 0.00 0.00 80 993.9
20260505034210 59 195 2.0 3.0 0.00 0.00 0.00 80 993.6
20260505034006 59 196 4.0 5.0 0.00 0.00 0.00 80 993.6
20260505033802 59 203 5.0 7.0 0.00 0.00 0.00 80 993.6
20260505033559 60 177 3.0 4.0 0.00 0.00 0.00 80 993.6
20260505033355 60 161 2.0 3.0 0.00 0.00 0.00 80 993.6
20260505033151 60 176 1.0 2.0 0.00 0.00 0.00 80 993.6
20260505032947 60 231 3.0 4.0 0.00 0.00 0.00 80 993.6
20260505032743 60 281 2.0 3.0 0.00 0.00 0.00 80 993.6
20260505032540 60 256 4.0 5.0 0.00 0.00 0.00 79 993.6
20260505032336 60 238 3.0 4.0 0.00 0.00 0.00 79 993.6
20260505032132 61 238 3.0 4.0 0.00 0.00 0.00 78 993.6
20260505032110 61 217 4.0 5.0 0.00 0.00 0.00 78 993.6
20260505031834 61 233 9.0 10.0 0.00 0.00 0.00 77 993.6
20260505031600 62 232 6.0 7.0 0.00 0.00 0.00 77 993.2
20260505031140 62 191 9.0 10.0 0.00 0.00 0.00 77 993.2
20260505030937 62 236 7.0 8.0 0.00 0.00 0.00 78 993.2
20260505030733 62 227 6.0 7.0 0.00 0.00 0.00 77 993.2
20260505030711 62 224 6.0 8.0 0.00 0.00 0.00 78 992.9
20260505030253 62 223 6.0 7.0 0.00 0.00 0.00 78 993.2
20260505030049 62 201 6.0 7.0 0.00 0.00 0.00 79 992.9
20260505025845 62 180 5.0 6.0 0.00 0.00 0.00 80 992.9
20260505025641 62 185 5.0 6.0 0.00 0.00 0.00 80 992.9
20260505025437 63 192 5.0 5.0 0.00 0.00 0.00 80 992.9
20260505025233 63 184 7.0 7.0 0.00 0.00 0.00 79 992.9
20260505025029 63 152 6.0 7.0 0.00 0.00 0.00 79 992.9
20260505024825 63 183 8.0 10.0 0.00 0.00 0.00 79 992.6
20260505024621 64 173 7.0 8.0 0.00 0.00 0.00 80 992.9
20260505024418 64 178 8.0 10.0 0.00 0.00 0.00 79 992.6
20260505024356 64 159 8.0 9.0 0.00 0.00 0.00 79 992.9
20260505023938 64 174 6.0 7.0 0.00 0.00 0.00 79 992.9
20260505023734 64 173 7.0 7.0 0.00 0.00 0.00 79 992.6
20260505023531 64 196 9.0 10.0 0.00 0.00 0.00 78 992.9
20260505023327 64 155 7.0 8.0 0.00 0.00 0.00 78 992.6
20260505023305 65 193 6.0 7.0 0.00 0.00 0.00 78 992.9
20260505022846 65 183 8.0 10.0 0.00 0.00 0.00 77 992.6
20260505022642 65 183 6.0 7.0 0.00 0.00 0.00 78 992.6
20260505022438 65 169 6.0 7.0 0.00 0.00 0.00 78 992.9
20260505022234 65 165 6.0 7.0 0.00 0.00 0.00 77 992.9
20260505022031 65 184 9.0 10.0 0.00 0.00 0.00 75 992.6
20260505022009 66 180 7.0 8.0 0.00 0.00 0.00 75 992.9
20260505021551 66 172 7.0 7.0 0.00 0.00 0.00 75 992.6
20260505021347 66 181 8.0 8.0 0.00 0.00 0.00 74 992.6
20260505021144 66 168 7.0 7.0 0.00 0.00 0.00 73 992.6
20260505020939 66 178 7.0 7.0 0.00 0.00 0.00 74 992.9
20260505020918 66 180 7.0 9.0 0.00 0.00 0.00 73 992.6
20260505020500 66 169 7.0 8.0 0.00 0.00 0.00 73 992.9
20260505020256 67 159 7.0 8.0 0.00 0.00 0.00 73 992.6
20260505020052 67 173 7.0 9.0 0.00 0.00 0.00 73 992.9
20260505015848 67 164 7.0 7.0 0.00 0.00 0.00 72 992.9
20260505015826 67 163 8.0 9.0 0.00 0.00 0.00 71 992.6
20260505015408 67 171 7.0 8.0 0.00 0.00 0.00 70 992.9
20260505015204 67 156 8.0 9.0 0.00 0.00 0.00 71 992.6
20260505015142 67 151 6.0 7.0 0.00 0.00 0.00 70 992.6
20260505014725 67 175 6.0 7.0 0.00 0.00 0.00 70 992.9
20260505014521 67 171 5.0 7.0 0.00 0.00 0.00 70 992.9
20260505014318 67 150 8.0 8.0 0.00 0.00 0.00 69 992.9
20260505014114 67 164 7.0 7.0 0.00 0.00 0.00 68 992.9
20260505013910 67 191 8.0 9.0 0.00 0.00 0.00 69 992.9
20260505013706 67 146 9.0 10.0 0.00 0.00 0.00 69 992.9
20260505013503 67 196 6.0 7.0 0.00 0.00 0.00 68 992.9
20260505013259 67 181 6.0 7.0 0.00 0.00 0.00 70 992.9
20260505013055 67 193 7.0 7.0 0.00 0.00 0.00 68 992.9
20260505012852 67 186 6.0 7.0 0.00 0.00 0.00 71 992.9
20260505012647 67 182 5.0 5.0 0.00 0.00 0.00 68 992.9
20260505012444 67 186 6.0 7.0 0.00 0.00 0.00 69 992.9
20260505012422 68 168 7.0 8.0 0.00 0.00 0.00 69 992.9
20260505012146 67 141 6.0 7.0 0.00 0.00 0.00 70 992.9
20260505011728 67 182 4.0 5.0 0.00 0.00 0.00 69 992.9
20260505011524 67 190 6.0 7.0 0.00 0.00 0.00 69 992.9
20260505011321 67 189 5.0 8.0 0.00 0.00 0.00 68 993.2
20260505011116 67 189 4.0 5.0 0.00 0.00 0.00 68 992.9
20260505010913 67 211 5.0 8.0 0.00 0.00 0.00 69 993.2
20260505010709 67 183 5.0 7.0 0.00 0.00 0.00 68 993.2
20260505010505 67 188 7.0 9.0 0.00 0.00 0.00 68 993.2
20260505010301 67 199 6.0 7.0 0.00 0.00 0.00 68 992.9
20260505010057 67 170 5.0 6.0 0.00 0.00 0.00 69 993.2
20260505005854 67 191 4.0 5.0 0.00 0.00 0.00 70 993.2
20260505005832 67 199 6.0 6.0 0.00 0.00 0.00 67 993.2
20260505005414 67 188 9.0 9.0 0.00 0.00 0.00 67 992.9
20260505005210 67 174 7.0 8.0 0.00 0.00 0.00 70 993.2
20260505005006 67 185 9.0 10.0 0.00 0.00 0.00 68 993.2
20260505004802 67 173 5.0 6.0 0.00 0.00 0.00 68 993.2
20260505004740 67 203 7.0 7.0 0.00 0.00 0.00 68 993.2
20260505004300 68 154 8.0 10.0 0.00 0.00 0.00 67 993.2
20260505003842 68 154 8.0 10.0 0.00 0.00 0.00 67 993.2
20260505003638 67 169 5.0 6.0 0.00 0.00 0.00 66 993.2
20260505003435 67 194 5.0 7.0 0.00 0.00 0.00 67 993.2
20260505003231 67 193 7.0 7.0 0.00 0.00 0.00 66 993.2
20260505003209 67 162 4.0 6.0 0.00 0.00 0.00 67 993.2
20260505002750 67 184 7.0 8.0 0.00 0.00 0.00 67 993.2
20260505002546 67 215 6.0 7.0 0.00 0.00 0.00 65 993.2
20260505002343 67 165 6.0 7.0 0.00 0.00 0.00 68 993.2
20260505002139 67 154 7.0 8.0 0.00 0.00 0.00 66 993.6
20260505001936 67 152 9.0 11.0 0.00 0.00 0.00 67 993.2
20260505001732 67 179 5.0 5.0 0.00 0.00 0.00 69 993.2
20260505001528 67 193 5.0 7.0 0.00 0.00 0.00 69 993.2
20260505001324 67 133 8.0 9.0 0.00 0.00 0.00 67 993.2
20260505001121 67 149 6.0 7.0 0.00 0.00 0.00 66 993.2
20260505001059 67 161 8.0 10.0 0.00 0.00 0.00 66 993.6
20260505000640 67 166 5.0 7.0 0.00 0.00 0.00 69 993.6
20260505000435 67 143 6.0 7.0 0.00 0.00 0.00 66 993.6
20260505000233 67 167 7.0 7.0 0.00 0.00 0.00 65 993.6
20260505000025 67 213 7.0 8.0 0.00 0.00 0.00 71 993.6
20260504235819 67 224 4.0 5.0 0.00 0.00 0.00 66 993.6
20260504235615 67 140 8.0 10.0 0.00 0.00 0.00 67 993.6
20260504235411 67 137 5.0 5.0 0.00 0.00 0.00 67 993.6
20260504235349 66 183 7.0 10.0 0.00 0.00 0.00 69 993.6
20260504234931 67 189 7.0 8.0 0.00 0.00 0.00 66 993.6
20260504234727 67 168 8.0 9.0 0.00 0.00 0.00 67 993.6
20260504234524 66 155 5.0 6.0 0.00 0.00 0.00 65 993.6
20260504234320 66 159 7.0 8.0 0.00 0.00 0.00 69 993.6
20260504234116 65 166 6.0 7.0 0.00 0.00 0.00 69 993.6
20260504233913 66 192 7.0 7.0 0.00 0.00 0.00 68 993.6
20260504233709 66 195 9.0 10.0 0.00 0.00 0.00 66 993.6
20260504233505 66 179 7.0 8.0 0.00 0.00 0.00 70 993.6
20260504233301 65 195 7.0 7.0 0.00 0.00 0.00 67 993.6
20260504233239 65 219 6.0 7.0 0.00 0.00 0.00 68 993.9
20260504232821 66 193 8.0 9.0 0.00 0.00 0.00 68 993.6
20260504232758 66 201 6.0 9.0 0.00 0.00 0.00 71 993.9
20260504232341 66 194 9.0 10.0 0.00 0.00 0.00 69 993.6
20260504232137 66 165 5.0 6.0 0.00 0.00 0.00 71 993.6
20260504232115 65 174 8.0 10.0 0.00 0.00 0.00 73 993.6
20260504231658 65 194 7.0 7.0 0.00 0.00 0.00 72 993.9
20260504231454 65 210 9.0 10.0 0.00 0.00 0.00 69 993.9
20260504231432 65 204 9.0 10.0 0.00 0.00 0.00 69 993.9
20260504231156 65 159 6.0 7.0 0.00 0.00 0.00 69 993.6
20260504230738 65 166 10.0 11.0 0.00 0.00 0.00 70 993.6
20260504230534 65 174 12.0 13.0 0.00 0.00 0.00 70 993.9
20260504230330 65 179 9.0 10.0 0.00 0.00 0.00 71 993.6
20260504230307 64 179 12.0 13.0 0.00 0.00 0.00 71 993.6
20260504225850 64 164 6.0 8.0 0.00 0.00 0.00 69 993.9
20260504225646 64 199 10.0 12.0 0.00 0.00 0.00 74 993.9
20260504225624 64 211 9.0 10.0 0.00 0.00 0.00 75 993.9
20260504225205 64 192 8.0 9.0 0.00 0.00 0.00 71 993.9
20260504225001 65 175 8.0 10.0 0.00 0.00 0.00 73 993.9
20260504224757 65 183 10.0 11.0 0.00 0.00 0.00 71 993.9
20260504224553 64 131 11.0 13.0 0.00 0.00 0.00 74 993.6
20260504224350 64 157 6.0 7.0 0.00 0.00 0.00 71 993.9
20260504224328 64 214 9.0 12.0 0.00 0.00 0.00 72 993.9
20260504224052 64 190 8.0 8.0 0.00 0.00 0.00 72 993.9
20260504223817 64 145 9.0 10.0 0.00 0.00 0.00 72 994.2